When you browse on this site, cookies collect data to enhance your experience and personalize the content and advertising you see.
Visit our Privacy Policy to learn more. By continuing to use the site, you agree to this use of cookies and data.
  • In Österreich
  • Länderverzeichnis
  • Für 7 Tage
  • Wassertemperatur
  • Satellitenkarten
  • Wetterkarte
  • News
  • Widgets
  • user-avatar
    Anmelden

    Stündliche Wetter Tibissa

    Heute, 19 Januar, Samstag

    Zeit Temperatur Niederschläge Wind Luftdruck Luftfeuchtigkeit
    00:00 +4°C° 0 mm 0 m/S 683 mmHg 81%
    01:00 +4°C° 0 mm 0 m/S 683 mmHg 83%
    02:00 +4°C° 0 mm 0 m/S 682 mmHg 85%
    03:00 +3°C° 0 mm 0 m/S 682 mmHg 86%
    04:00 +3°C° 0 mm 0 m/S 682 mmHg 87%
    05:00 +3°C° 0 mm 0 m/S 682 mmHg 87%
    06:00 +2°C° 0 mm 0 m/S 682 mmHg 87%
    07:00 +2°C° 0 mm 0 m/S 682 mmHg 86%
    08:00 +5°C° 0 mm 1 m/S 682 mmHg 78%
    09:00 +7°C° 0 mm 1 m/S 683 mmHg 69%
    10:00 +8°C° 0 mm 1 m/S 683 mmHg 60%
    11:00 +9°C° 0 mm 1 m/S 683 mmHg 55%
    12:00 +10°C° 0 mm 1 m/S 683 mmHg 50%
    13:00 +11°C° 0 mm 1 m/S 683 mmHg 44%
    14:00 +11°C° 0 mm 1 m/S 682 mmHg 43%
    15:00 +10°C° 0 mm 2 m/S 682 mmHg 42%
    16:00 +10°C° 0 mm 2 m/S 682 mmHg 41%
    17:00 +10°C° 0 mm 2 m/S 682 mmHg 46%
    18:00 +9°C° 0 mm 2 m/S 682 mmHg 51%
    19:00 +8°C° 0 mm 2 m/S 682 mmHg 56%
    20:00 +7°C° 0 mm 2 m/S 682 mmHg 62%
    21:00 +7°C° 0 mm 2 m/S 682 mmHg 69%
    22:00 +7°C° 0 mm 1 m/S 682 mmHg 76%
    23:00 +6°C° 0 mm 1 m/S 682 mmHg 80%

    Morgen, 20 Januar, Sonntag

    Zeit Temperatur Niederschläge Wind Luftdruck Luftfeuchtigkeit
    00:00 +6°C° 0 mm 1 m/S 682 mmHg 85%
    01:00 +4°C° 0 mm 0 m/S 682 mmHg 90%
    02:00 +4°C° 0 mm 0 m/S 682 mmHg 90%
    03:00 +3°C° 0 mm 0 m/S 681 mmHg 91%
    04:00 +3°C° 0 mm 0 m/S 681 mmHg 92%
    05:00 +3°C° 0 mm 0 m/S 681 mmHg 91%
    06:00 +4°C° 0 mm 1 m/S 681 mmHg 90%
    07:00 +4°C° 0 mm 1 m/S 681 mmHg 89%
    08:00 +4°C° 0 mm 2 m/S 681 mmHg 82%
    09:00 +6°C° 0 mm 2 m/S 682 mmHg 74%
    10:00 +7°C° 0 mm 3 m/S 682 mmHg 67%
    11:00 +7°C° 0 mm 4 m/S 682 mmHg 59%
    12:00 +8°C° 0 mm 5 m/S 682 mmHg 51%
    13:00 +9°C° 0 mm 6 m/S 681 mmHg 42%
    14:00 +9°C° 0 mm 7 m/S 681 mmHg 45%
    15:00 +9°C° 0 mm 7 m/S 680 mmHg 48%
    16:00 +9°C° 0 mm 8 m/S 680 mmHg 51%
    17:00 +8°C° 0.1 mm 7 m/S 680 mmHg 58%
    18:00 +6°C° 0.1 mm 7 m/S 680 mmHg 64%
    19:00 +5°C° 0.1 mm 7 m/S 680 mmHg 71%
    20:00 +5°C° 0.6 mm 7 m/S 679 mmHg 72%
    21:00 +5°C° 0.6 mm 7 m/S 679 mmHg 74%
    22:00 +5°C° 0.6 mm 6 m/S 679 mmHg 76%
    23:00 +4°C° 0.2 mm 6 m/S 679 mmHg 77%

    übermorgen, 21 Januar, Montag

    Zeit Temperatur Niederschläge Wind Luftdruck Luftfeuchtigkeit
    00:00 +5°C° 0.2 mm 5 m/S 679 mmHg 78%
    01:00 +5°C° 0.2 mm 4 m/S 679 mmHg 80%
    02:00 +5°C° 0 mm 4 m/S 678 mmHg 82%
    03:00 +4°C° 0 mm 4 m/S 678 mmHg 84%
    04:00 +4°C° 0 mm 3 m/S 678 mmHg 87%
    05:00 +4°C° 0 mm 3 m/S 678 mmHg 87%
    06:00 +4°C° 0 mm 3 m/S 678 mmHg 87%
    07:00 +5°C° 0 mm 2 m/S 678 mmHg 87%
    08:00 +5°C° 0 mm 3 m/S 678 mmHg 81%
    09:00 +7°C° 0 mm 3 m/S 678 mmHg 75%
    10:00 +8°C° 0 mm 3 m/S 679 mmHg 69%
    11:00 +8°C° 0 mm 4 m/S 679 mmHg 64%
    12:00 +9°C° 0 mm 5 m/S 679 mmHg 58%
    13:00 +10°C° 0 mm 5 m/S 679 mmHg 52%
    14:00 +10°C° 0.2 mm 6 m/S 679 mmHg 57%
    15:00 +9°C° 0.2 mm 7 m/S 679 mmHg 62%
    16:00 +9°C° 0.2 mm 8 m/S 679 mmHg 66%
    17:00 +6°C° 0.1 mm 8 m/S 679 mmHg 72%
    18:00 +5°C° 0.1 mm 8 m/S 680 mmHg 78%
    19:00 +4°C° 0.1 mm 8 m/S 680 mmHg 84%
    20:00 +2°C° 0.5 mm 8 m/S 681 mmHg 83%
    21:00 +2°C° 0.5 mm 8 m/S 681 mmHg 83%
    22:00 +2°C° 0.5 mm 8 m/S 681 mmHg 82%
    23:00 +2°C° 0 mm 8 m/S 682 mmHg 82%

    22 Januar, Dienstag

    Zeit Temperatur Niederschläge Wind Luftdruck Luftfeuchtigkeit
    00:00 +3°C° 0 mm 7 m/S 682 mmHg 82%
    01:00 +2°C° 0 mm 7 m/S 682 mmHg 82%
    02:00 +2°C° 0.1 mm 6 m/S 682 mmHg 84%
    03:00 +2°C° 0.1 mm 6 m/S 682 mmHg 85%
    04:00 +2°C° 0.1 mm 5 m/S 682 mmHg 87%
    05:00 +2°C° 0 mm 5 m/S 682 mmHg 87%
    06:00 +2°C° 0 mm 5 m/S 682 mmHg 88%
    07:00 +2°C° 0 mm 5 m/S 682 mmHg 89%
    08:00 +2°C° 0 mm 5 m/S 683 mmHg 85%
    09:00 +2°C° 0 mm 5 m/S 683 mmHg 82%
    10:00 +2°C° 0 mm 5 m/S 683 mmHg 78%
    11:00 +3°C° 0 mm 6 m/S 683 mmHg 75%
    12:00 +4°C° 0 mm 6 m/S 683 mmHg 71%
    13:00 +4°C° 0 mm 6 m/S 683 mmHg 68%
    14:00 +4°C° 0 mm 6 m/S 682 mmHg 66%
    15:00 +4°C° 0 mm 7 m/S 682 mmHg 64%
    16:00 +4°C° 0 mm 7 m/S 682 mmHg 62%
    17:00 +4°C° 0 mm 6 m/S 681 mmHg 67%
    18:00 +4°C° 0 mm 4 m/S 681 mmHg 71%
    19:00 +3°C° 0 mm 3 m/S 681 mmHg 76%
    20:00 +2°C° 0 mm 3 m/S 681 mmHg 76%
    21:00 +3°C° 0 mm 2 m/S 681 mmHg 77%
    22:00 +3°C° 0 mm 2 m/S 681 mmHg 77%
    23:00 +2°C° 0 mm 3 m/S 680 mmHg 77%

    23 Januar, Mittwoch

    Zeit Temperatur Niederschläge Wind Luftdruck Luftfeuchtigkeit
    00:00 +2°C° 0 mm 3 m/S 680 mmHg 78%
    01:00 +1°C° 0 mm 3 m/S 679 mmHg 78%
    02:00 0°C° 0 mm 4 m/S 679 mmHg 80%
    03:00 0°C° 0 mm 5 m/S 678 mmHg 82%
    04:00 0°C° 0 mm 5 m/S 677 mmHg 83%
    05:00 0°C° 0 mm 5 m/S 677 mmHg 81%
    06:00 -1°C° 0 mm 6 m/S 676 mmHg 78%
    07:00 -1°C° 0 mm 6 m/S 676 mmHg 76%
    08:00 0°C° 0 mm 7 m/S 676 mmHg 70%
    09:00 +1°C° 0 mm 8 m/S 676 mmHg 65%
    10:00 +2°C° 0 mm 9 m/S 675 mmHg 60%
    11:00 +3°C° 0.1 mm 10 m/S 675 mmHg 59%
    12:00 +5°C° 0.1 mm 10 m/S 675 mmHg 57%
    13:00 +6°C° 0.1 mm 11 m/S 674 mmHg 56%
    14:00 +4°C° 0.2 mm 11 m/S 674 mmHg 56%
    15:00 +4°C° 0.2 mm 11 m/S 673 mmHg 57%
    16:00 +5°C° 0.2 mm 10 m/S 673 mmHg 57%
    17:00 +3°C° 0 mm 9 m/S 673 mmHg 59%
    18:00 +2°C° 0 mm 8 m/S 673 mmHg 61%
    19:00 +3°C° 0 mm 6 m/S 672 mmHg 63%
    20:00 +3°C° 0 mm 7 m/S 672 mmHg 65%
    21:00 +1°C° 0 mm 8 m/S 671 mmHg 67%
    22:00 +1°C° 0 mm 9 m/S 671 mmHg 69%
    23:00 +1°C° 0 mm 10 m/S 670 mmHg 71%

    24 Januar, Donnerstag

    Zeit Temperatur Niederschläge Wind Luftdruck Luftfeuchtigkeit
    00:00 +1°C° 0 mm 11 m/S 669 mmHg 74%
    01:00 0°C° 0 mm 12 m/S 669 mmHg 76%
    02:00 0°C° 0 mm 13 m/S 668 mmHg 77%
    03:00 +1°C° 0 mm 13 m/S 668 mmHg 77%
    04:00 +1°C° 0 mm 13 m/S 667 mmHg 77%
    05:00 +1°C° 0.3 mm 14 m/S 667 mmHg 79%
    06:00 +1°C° 0.3 mm 14 m/S 667 mmHg 80%
    07:00 +1°C° 0.3 mm 14 m/S 667 mmHg 81%
    08:00 +2°C° 0.9 mm 12 m/S 667 mmHg 81%
    09:00 +1°C° 0.9 mm 10 m/S 668 mmHg 81%
    10:00 +1°C° 0.9 mm 8 m/S 668 mmHg 81%
    11:00 +1°C° 0.1 mm 9 m/S 668 mmHg 74%
    12:00 +1°C° 0.1 mm 10 m/S 668 mmHg 67%
    13:00 +2°C° 0.1 mm 11 m/S 669 mmHg 61%
    14:00 +1°C° 0.1 mm 11 m/S 669 mmHg 60%
    15:00 -1°C° 0.1 mm 12 m/S 669 mmHg 59%
    16:00 -1°C° 0.1 mm 13 m/S 669 mmHg 58%
    17:00 -2°C° 0 mm 11 m/S 669 mmHg 62%
    18:00 -3°C° 0 mm 10 m/S 670 mmHg 65%
    19:00 -4°C° 0 mm 8 m/S 670 mmHg 69%
    20:00 -4°C° 0 mm 9 m/S 671 mmHg 66%
    21:00 -4°C° 0 mm 9 m/S 671 mmHg 63%
    22:00 -4°C° 0 mm 10 m/S 671 mmHg 60%
    23:00 -4°C° 0 mm 9 m/S 671 mmHg 60%
    Mehr zeigen